• In Belgien
  • Länderverzeichnis
  • Für 7 Tage
  • Wassertemperatur
  • Satellitenkarten
  • Wetterkarte
  • Widgets
  • user-avatar
    Anmelden

    Stündliche Wetter Hrasdan

    Heute, 22 Januar, Montag

    Zeit Temperatur Niederschläge Wind Luftdruck Luftfeuchtigkeit
    00:00 -6°C° 0 mm 3 m/S 610 mmHg 64%
    01:00 -6°C° 0 mm 3 m/S 610 mmHg 64%
    02:00 -6°C° 0 mm 3 m/S 610 mmHg 63%
    03:00 -5°C° 0 mm 3 m/S 609 mmHg 63%
    04:00 -5°C° 0 mm 3 m/S 609 mmHg 62%
    05:00 -5°C° 0 mm 3 m/S 609 mmHg 62%
    06:00 -5°C° 0 mm 3 m/S 609 mmHg 61%
    07:00 -4°C° 0 mm 2 m/S 608 mmHg 61%
    08:00 -3°C° 0 mm 2 m/S 608 mmHg 60%
    09:00 -3°C° 0 mm 2 m/S 608 mmHg 60%
    10:00 -2°C° 0 mm 2 m/S 608 mmHg 60%
    11:00 +1°C° 0 mm 2 m/S 608 mmHg 59%
    12:00 +2°C° 0 mm 2 m/S 609 mmHg 59%
    13:00 +2°C° 0 mm 2 m/S 608 mmHg 60%
    14:00 +2°C° 0 mm 2 m/S 608 mmHg 60%
    15:00 +2°C° 0 mm 2 m/S 607 mmHg 60%
    16:00 -1°C° 0 mm 2 m/S 607 mmHg 59%
    17:00 -2°C° 0 mm 2 m/S 606 mmHg 57%
    18:00 -4°C° 0 mm 2 m/S 606 mmHg 55%
    19:00 -4°C° 0 mm 2 m/S 606 mmHg 54%
    20:00 -5°C° 0 mm 2 m/S 605 mmHg 52%
    21:00 -5°C° 0 mm 2 m/S 605 mmHg 51%
    22:00 -5°C° 0 mm 2 m/S 605 mmHg 52%
    23:00 -7°C° 0 mm 3 m/S 605 mmHg 53%

    Morgen, 23 Januar, Dienstag

    Zeit Temperatur Niederschläge Wind Luftdruck Luftfeuchtigkeit
    00:00 -7°C° 0 mm 3 m/S 605 mmHg 55%
    01:00 -7°C° 0 mm 3 m/S 605 mmHg 56%
    02:00 -7°C° 0 mm 3 m/S 605 mmHg 56%
    03:00 -7°C° 0 mm 3 m/S 605 mmHg 57%
    04:00 -7°C° 0 mm 3 m/S 605 mmHg 58%
    05:00 -8°C° 0 mm 3 m/S 605 mmHg 58%
    06:00 -8°C° 0 mm 3 m/S 605 mmHg 58%
    07:00 -7°C° 0 mm 3 m/S 605 mmHg 58%
    08:00 -6°C° 0 mm 3 m/S 606 mmHg 59%
    09:00 -6°C° 0 mm 3 m/S 606 mmHg 59%
    10:00 -4°C° 0 mm 3 m/S 606 mmHg 58%
    11:00 -2°C° 0 mm 3 m/S 606 mmHg 58%
    12:00 -1°C° 0 mm 3 m/S 606 mmHg 57%
    13:00 -1°C° 0 mm 3 m/S 606 mmHg 57%
    14:00 -1°C° 0 mm 3 m/S 606 mmHg 58%
    15:00 -1°C° 0 mm 2 m/S 606 mmHg 59%
    16:00 -2°C° 0 mm 2 m/S 606 mmHg 59%
    17:00 -3°C° 0 mm 2 m/S 606 mmHg 59%
    18:00 -5°C° 0 mm 2 m/S 606 mmHg 59%
    19:00 -4°C° 0 mm 2 m/S 606 mmHg 61%
    20:00 -4°C° 0 mm 2 m/S 606 mmHg 62%
    21:00 -4°C° 0 mm 2 m/S 606 mmHg 63%
    22:00 -4°C° 0 mm 2 m/S 606 mmHg 64%
    23:00 -4°C° 0 mm 2 m/S 606 mmHg 65%

    übermorgen, 24 Januar, Mittwoch

    Zeit Temperatur Niederschläge Wind Luftdruck Luftfeuchtigkeit
    00:00 -4°C° 0 mm 2 m/S 607 mmHg 66%
    01:00 -4°C° 0,1 mm 2 m/S 607 mmHg 67%
    02:00 -4°C° 0,1 mm 2 m/S 607 mmHg 69%
    03:00 -5°C° 0,1 mm 2 m/S 607 mmHg 71%
    04:00 -3°C° 0,1 mm 1 m/S 607 mmHg 72%
    05:00 -3°C° 0,1 mm 1 m/S 607 mmHg 74%
    06:00 -3°C° 0,1 mm 1 m/S 607 mmHg 76%
    07:00 -3°C° 0,1 mm 1 m/S 607 mmHg 76%
    08:00 -2°C° 0,1 mm 1 m/S 608 mmHg 76%
    09:00 -2°C° 0,1 mm 1 m/S 609 mmHg 76%
    10:00 -1°C° 0,1 mm 1 m/S 609 mmHg 75%
    11:00 -2°C° 0,1 mm 2 m/S 609 mmHg 73%
    12:00 -1°C° 0,1 mm 2 m/S 609 mmHg 71%
    13:00 -1°C° 0 mm 2 m/S 609 mmHg 71%
    14:00 +1°C° 0 mm 1 m/S 609 mmHg 71%
    15:00 +1°C° 0 mm 1 m/S 609 mmHg 71%
    16:00 0°C° 0 mm 1 m/S 609 mmHg 73%
    17:00 -2°C° 0 mm 1 m/S 609 mmHg 74%
    18:00 -3°C° 0 mm 1 m/S 609 mmHg 76%
    19:00 -3°C° 0 mm 1 m/S 609 mmHg 76%
    20:00 -4°C° 0 mm 1 m/S 609 mmHg 75%
    21:00 -4°C° 0 mm 1 m/S 610 mmHg 75%
    22:00 -4°C° 0,1 mm 1 m/S 610 mmHg 75%
    23:00 -4°C° 0,1 mm 1 m/S 610 mmHg 75%

    25 Januar, Donnerstag

    Zeit Temperatur Niederschläge Wind Luftdruck Luftfeuchtigkeit
    00:00 -4°C° 0,1 mm 1 m/S 610 mmHg 75%
    01:00 -3°C° 0,1 mm 1 m/S 610 mmHg 77%
    02:00 -3°C° 0,1 mm 1 m/S 610 mmHg 79%
    03:00 -3°C° 0,1 mm 1 m/S 611 mmHg 80%
    04:00 -3°C° 0,1 mm 1 m/S 610 mmHg 82%
    05:00 -4°C° 0,1 mm 1 m/S 610 mmHg 83%
    06:00 -4°C° 0,1 mm 1 m/S 610 mmHg 85%
    07:00 -3°C° 0,1 mm 1 m/S 611 mmHg 85%
    08:00 -3°C° 0,1 mm 1 m/S 611 mmHg 85%
    09:00 -3°C° 0,1 mm 1 m/S 611 mmHg 85%
    10:00 -2°C° 0,2 mm 1 m/S 611 mmHg 83%
    11:00 -3°C° 0,2 mm 2 m/S 611 mmHg 82%
    12:00 -3°C° 0,2 mm 2 m/S 611 mmHg 81%
    13:00 -3°C° 0,3 mm 2 m/S 611 mmHg 82%
    14:00 -3°C° 0,3 mm 2 m/S 611 mmHg 82%
    15:00 -3°C° 0,3 mm 2 m/S 611 mmHg 83%
    16:00 -3°C° 0,2 mm 2 m/S 611 mmHg 85%
    17:00 -4°C° 0,2 mm 2 m/S 611 mmHg 87%
    18:00 -5°C° 0,2 mm 2 m/S 611 mmHg 88%
    19:00 -5°C° 0,2 mm 2 m/S 611 mmHg 88%
    20:00 -5°C° 0,2 mm 2 m/S 611 mmHg 88%
    21:00 -5°C° 0,2 mm 2 m/S 611 mmHg 88%
    22:00 -5°C° 0,2 mm 2 m/S 611 mmHg 88%
    23:00 -6°C° 0,2 mm 2 m/S 611 mmHg 88%

    26 Januar, Freitag

    Zeit Temperatur Niederschläge Wind Luftdruck Luftfeuchtigkeit
    00:00 -6°C° 0,2 mm 2 m/S 611 mmHg 88%
    01:00 -6°C° 0,1 mm 2 m/S 611 mmHg 88%
    02:00 -6°C° 0,1 mm 2 m/S 611 mmHg 88%
    03:00 -6°C° 0,1 mm 2 m/S 611 mmHg 88%
    04:00 -6°C° 0,1 mm 2 m/S 611 mmHg 88%
    05:00 -6°C° 0,1 mm 2 m/S 610 mmHg 88%
    06:00 -6°C° 0,1 mm 2 m/S 610 mmHg 88%
    07:00 -6°C° 0,1 mm 2 m/S 611 mmHg 88%
    08:00 -5°C° 0,1 mm 2 m/S 611 mmHg 88%
    09:00 -5°C° 0,1 mm 2 m/S 611 mmHg 87%
    10:00 -5°C° 0,2 mm 2 m/S 611 mmHg 86%
    11:00 -4°C° 0,2 mm 2 m/S 611 mmHg 85%
    12:00 -3°C° 0,2 mm 2 m/S 611 mmHg 84%
    13:00 -3°C° 0,2 mm 2 m/S 610 mmHg 84%
    14:00 -3°C° 0,2 mm 2 m/S 610 mmHg 84%
    15:00 -3°C° 0,2 mm 2 m/S 610 mmHg 84%
    16:00 -4°C° 0,2 mm 2 m/S 610 mmHg 86%
    17:00 -5°C° 0,2 mm 2 m/S 610 mmHg 87%
    18:00 -3°C° 0,2 mm 1 m/S 610 mmHg 89%
    19:00 -4°C° 0,2 mm 1 m/S 610 mmHg 89%
    20:00 -4°C° 0,2 mm 1 m/S 610 mmHg 90%
    21:00 -4°C° 0,2 mm 1 m/S 610 mmHg 90%
    22:00 -4°C° 0,2 mm 1 m/S 610 mmHg 90%
    23:00 -4°C° 0,2 mm 1 m/S 610 mmHg 90%

    27 Januar, Samstag

    Zeit Temperatur Niederschläge Wind Luftdruck Luftfeuchtigkeit
    00:00 -6°C° 0,2 mm 1 m/S 610 mmHg 90%
    01:00 -6°C° 0,2 mm 1 m/S 610 mmHg 90%
    02:00 -6°C° 0,2 mm 1 m/S 610 mmHg 90%
    03:00 -6°C° 0,2 mm 1 m/S 610 mmHg 90%
    04:00 -6°C° 0,2 mm 1 m/S 610 mmHg 90%
    05:00 -6°C° 0,2 mm 1 m/S 610 mmHg 90%
    06:00 -6°C° 0,2 mm 1 m/S 610 mmHg 90%
    07:00 -6°C° 0,2 mm 1 m/S 610 mmHg 89%
    08:00 -6°C° 0,2 mm 1 m/S 611 mmHg 88%
    09:00 -6°C° 0,2 mm 2 m/S 611 mmHg 87%
    10:00 -6°C° 0,2 mm 2 m/S 611 mmHg 86%
    11:00 -5°C° 0,2 mm 2 m/S 611 mmHg 84%
    12:00 -4°C° 0,2 mm 2 m/S 611 mmHg 82%
    13:00 -4°C° 0,2 mm 2 m/S 611 mmHg 82%
    14:00 -4°C° 0,2 mm 2 m/S 611 mmHg 82%
    15:00 -4°C° 0,2 mm 2 m/S 611 mmHg 82%
    16:00 -5°C° 0,1 mm 2 m/S 611 mmHg 84%
    17:00 -6°C° 0,1 mm 2 m/S 611 mmHg 85%
    18:00 -6°C° 0,1 mm 2 m/S 612 mmHg 87%
    19:00 -7°C° 0,1 mm 2 m/S 612 mmHg 88%
    20:00 -7°C° 0,1 mm 2 m/S 612 mmHg 88%
    21:00 -7°C° 0,1 mm 2 m/S 612 mmHg 89%
    22:00 -8°C° 0,1 mm 2 m/S 612 mmHg 89%
    23:00 -7°C° 0,1 mm 1 m/S 612 mmHg 90%
    Mehr zeigen